IW1CBG-3 Weather Reports


Display with metric or nautical units.
time (UTC)temp
F
wind
direction
speed
MPH
gust
MPH
rain 1hr
in
rain 24hr
in
rain mn
in
humidity
%
barometer
mb
20260505180749 51 34 0.0 0.0 0.00 0.00 0.00 97 1023.8
20260505175748 52 136 4.0 0.0 0.00 0.00 0.00 97 1023.6
20260505174748 52 148 7.0 0.0 0.00 0.00 0.00 97 1023.8
20260505173747 52 117 4.0 0.0 0.00 0.00 0.00 96 1023.6
20260505172747 53 154 0.0 0.0 0.00 0.00 0.00 96 1023.5
20260505171748 52 150 0.0 0.0 0.00 0.00 0.00 96 1023.7
20260505170751 52 128 2.0 0.0 0.00 0.00 0.00 95 1023.8
20260505165748 52 148 0.0 0.0 0.00 0.00 0.00 96 1023.8
20260505163748 52 352 2.0 0.0 0.00 0.00 0.00 95 1024.0
20260505162747 52 158 0.0 0.0 0.00 0.00 0.00 96 1024.2
20260505161747 52 144 1.0 0.0 0.00 0.00 0.00 96 1024.1
20260505160748 51 135 0.0 0.0 0.00 0.00 0.00 97 1024.2
20260505152748 51 19 0.0 0.0 0.00 0.00 0.00 98 1024.5
20260505151747 51 299 0.0 0.0 0.00 0.00 0.00 98 1024.6
20260505150747 51 269 0.0 0.0 0.00 0.00 0.00 98 1024.4
20260505123748 53 322 1.0 0.0 0.00 0.00 0.00 91 1024.5
20260505122748 52 337 2.0 0.0 0.00 0.00 0.00 91 1024.7
20260505121748 52 336 3.0 0.0 0.00 0.00 0.00 90 1024.4
20260505120748 52 301 2.0 0.0 0.00 0.00 0.00 90 1024.5
20260505115748 53 283 3.0 0.0 0.00 0.00 0.00 91 1024.4
20260505114748 53 34 0.0 0.0 0.00 0.00 0.00 89 1024.6
20260505113747 53 16 5.0 0.0 0.00 0.00 0.00 88 1024.5
20260505112747 53 279 3.0 0.0 0.00 0.00 0.00 88 1024.6
20260505111747 53 327 5.0 0.0 0.00 0.00 0.00 87 1024.4
20260505110747 53 40 3.0 0.0 0.00 0.00 0.00 88 1024.4
20260505101747 53 273 3.0 0.0 0.00 0.00 0.00 87 1024.6
20260505100748 53 230 0.0 0.0 0.00 0.00 0.00 87 1024.7
20260505095748 52 169 3.0 0.0 0.00 0.00 0.00 87 1024.9
20260505094747 51 185 0.0 0.0 0.00 0.00 0.00 88 1024.9
20260505093748 51 122 0.0 0.0 0.00 0.00 0.00 89 1024.8
20260505092747 51 243 0.0 0.0 0.00 0.00 0.00 91 1025.0
20260505091747 52 156 2.0 0.0 0.00 0.00 0.00 90 1024.9
20260505090747 52 135 0.0 0.0 0.00 0.00 0.00 89 1024.7
20260505085748 51 290 0.0 0.0 0.00 0.00 0.00 88 1024.9
20260505083748 51 291 3.0 0.0 0.00 0.00 0.00 88 1024.6
20260505082748 51 0 3.0 0.0 0.00 0.00 0.00 90 1024.6
20260505081747 50 316 6.0 0.0 0.00 0.00 0.00 92 1025.0
20260505080748 49 293 4.0 0.0 0.00 0.00 0.00 96 1025.0
20260505075747 49 32 0.0 0.0 0.00 0.00 0.00 97 1025.4
20260505074747 49 69 2.0 0.0 0.00 0.00 0.00 97 1025.1
20260505073748 49 173 0.0 0.0 0.00 0.00 0.00 97 1025.4
20260505072749 49 279 0.0 0.0 0.00 0.00 0.00 97 1025.1
20260505071749 48 269 3.0 0.0 0.00 0.00 0.00 98 1025.1
20260505070747 49 48 0.0 0.0 0.00 0.00 0.00 98 1025.2
20260505065747 49 355 1.0 0.0 0.00 0.00 0.00 99 1025.0
20260505064748 49 284 4.0 0.0 0.00 0.00 0.00 99 1025.0
20260505063749 48 123 0.0 0.0 0.00 0.00 0.00 99 1025.0
20260505062748 48 157 2.0 0.0 0.00 0.00 0.00 99 1025.1
20260505061749 48 147 2.0 0.0 0.00 0.00 0.00 99 1025.2
20260505060749 48 100 1.0 0.0 0.00 0.00 0.00 99 1025.0
20260505055749 48 186 0.0 0.0 0.00 0.00 0.00 99 1025.1
20260505054745 48 137 0.0 0.0 0.00 0.00 0.00 99 1024.9
20260505053749 48 284 0.0 0.0 0.00 0.00 0.00 99 1025.0
20260505052749 48 168 0.0 0.0 0.00 0.00 0.00 99 1024.9
20260505051749 47 321 0.0 0.0 0.00 0.00 0.00 99 1024.6
20260505050749 48 55 2.0 0.0 0.00 0.00 0.00 99 1024.9
20260505041751 48 114 0.0 0.0 0.00 0.00 0.00 99 1025.0
20260505040749 48 27 3.0 0.0 0.00 0.00 0.00 99 1025.2
20260505035750 47 213 2.0 0.0 0.00 0.00 0.00 99 1024.6
20260505034750 48 232 2.0 0.0 0.00 0.00 0.00 99 1024.0
20260505033750 48 1 1.0 0.0 0.00 0.00 0.00 99 1025.6
20260505032750 48 135 0.0 0.0 0.00 0.00 0.00 99 1026.0
20260505031749 48 144 0.0 0.0 0.00 0.00 0.00 99 1026.0
20260505030749 48 122 2.0 0.0 0.00 0.00 0.00 99 1026.1
20260505025749 48 102 0.0 0.0 0.00 0.00 0.00 99 1026.1
20260505024750 48 185 0.0 0.0 0.00 0.00 0.00 99 1026.1
20260505023748 48 99 0.0 0.0 0.00 0.00 0.00 99 1025.9
20260505022749 48 143 2.0 0.0 0.00 0.00 0.00 99 1026.1
20260505021749 48 288 1.0 0.0 0.00 0.00 0.00 99 1026.0
20260505020749 48 134 2.0 0.0 0.00 0.00 0.00 99 1025.8
20260505015748 48 127 0.0 0.0 0.00 0.00 0.00 99 1026.1
20260505014748 48 272 2.0 0.0 0.00 0.00 0.00 99 1026.1
20260505013748 48 147 0.0 0.0 0.00 0.00 0.00 99 1026.4
20260505012748 48 140 0.0 0.0 0.00 0.00 0.00 99 1026.6
20260505011747 48 269 0.0 0.0 0.00 0.00 0.00 99 1026.7
20260505010748 48 175 2.0 0.0 0.00 0.00 0.00 98 1027.0
20260505005748 48 115 3.0 0.0 0.00 0.00 0.00 98 1026.8
20260505003748 49 140 0.0 0.0 0.00 0.00 0.00 98 1027.0
20260505002747 49 283 0.0 0.0 0.00 0.00 0.00 98 1027.4
20260505001747 49 357 3.0 0.0 0.00 0.00 0.00 98 1027.4
20260505000747 49 41 2.0 0.0 0.00 0.00 0.00 98 1027.5
20260504235748 50 346 3.0 0.0 0.00 0.00 0.00 98 1027.8
20260504234748 50 280 2.0 0.0 0.00 0.00 0.00 98 1027.5
20260504233748 50 136 0.0 0.0 0.00 0.00 0.00 98 1028.1
20260504232748 50 115 3.0 0.0 0.00 0.00 0.00 98 1028.0
20260504231747 50 160 5.0 0.0 0.00 0.00 0.00 97 1028.3
20260504230747 50 122 2.0 0.0 0.00 0.00 0.00 97 1028.3
20260504225748 50 135 0.0 0.0 0.00 0.00 0.00 97 1028.2
20260504224747 50 102 0.0 0.0 0.00 0.00 0.00 97 1028.3
20260504223748 50 106 2.0 0.0 0.00 0.00 0.00 97 1028.7
20260504222748 50 155 1.0 0.0 0.00 0.00 0.00 96 1028.7
20260504221749 50 130 0.0 0.0 0.00 0.00 0.00 96 1028.8
20260504220748 50 293 0.0 0.0 0.00 0.00 0.00 96 1028.7
20260504215748 50 150 0.0 0.0 0.00 0.00 0.00 96 1029.1
20260504214749 50 117 6.0 0.0 0.00 0.00 0.00 95 1029.1
20260504213749 50 129 2.0 0.0 0.00 0.00 0.00 95 1029.1
20260504212748 51 315 0.0 0.0 0.00 0.00 0.00 95 1029.3
20260504211749 51 283 2.0 0.0 0.00 0.00 0.00 94 1029.6
20260504210748 51 290 0.0 0.0 0.00 0.00 0.00 94 1029.5
20260504205747 51 277 3.0 0.0 0.00 0.00 0.00 92 1029.4
20260504203748 51 73 2.0 0.0 0.00 0.00 0.00 91 1029.2
20260504202748 51 254 0.0 0.0 0.00 0.00 0.00 91 1029.5
20260504201748 51 285 4.0 0.0 0.00 0.00 0.00 89 1029.4
20260504200748 52 237 0.0 0.0 0.00 0.00 0.00 87 1029.2
20260504195749 53 53 0.0 0.0 0.00 0.00 0.00 85 1029.2
20260504194747 52 137 0.0 0.0 0.00 0.00 0.00 84 1029.6
20260504193748 52 107 4.0 0.0 0.00 0.00 0.00 83 1029.4
20260504192748 52 107 2.0 0.0 0.00 0.00 0.00 83 1029.1
20260504191747 52 285 3.0 0.0 0.00 0.00 0.00 83 1029.2
20260504190747 53 328 5.0 0.0 0.00 0.00 0.00 83 1029.2
20260504185747 54 133 2.0 0.0 0.00 0.00 0.00 79 1028.7
20260504184748 54 110 6.0 0.0 0.00 0.00 0.00 77 1028.7
20260504183747 54 116 3.0 0.0 0.00 0.00 0.00 71 1028.3
20260504182748 55 61 2.0 0.0 0.00 0.00 0.00 74 1028.4
20260504181747 55 249 0.0 0.0 0.00 0.00 0.00 69 1028.4